SXS3PV LTAI-LOWW

Flight info

Callsign SXS3PV
Flight time 2h 28m
Altitude 38000
Route EKNUD1K/18L EKNUD UQ26 TUDBU Q26 ETUBA DCT AMTOV DCT UPAMA DCT TEGRI DCT OSLEN DCT BALUX DCT TORNO DCT BODZA DCT NATEX NATEX2W
Aircraft B738/M-SADE1E2FGHIRWXY/H

Departure

Time 2026-05-07 16:40
Airport Antalya International Airport (LTAI)

Arrival

Time 2026-05-07 19:08
Airport Vienna International Airport (LOWW)
Time Latitude Longitude Altitude Speed Heading
2026-05-07 16:00 36.89590 30.79525 191 ft 0 kts 186°
2026-05-07 16:05 36.89591 30.79525 191 ft 0 kts 186°
2026-05-07 16:27 36.89595 30.79526 204 ft 2 kts 186°
2026-05-07 16:27 36.89614 30.79528 196 ft 3 kts 186°
2026-05-07 16:28 36.89635 30.79531 205 ft 3 kts 186°
2026-05-07 16:28 36.89655 30.79534 204 ft 3 kts 186°
2026-05-07 16:28 36.89674 30.79537 195 ft 2 kts 186°
2026-05-07 16:28 36.89681 30.79538 200 ft 2 kts 186°
2026-05-07 16:30 36.89679 30.79538 200 ft 1 kts 183°
2026-05-07 16:30 36.89665 30.79548 201 ft 5 kts 131°
2026-05-07 16:31 36.89652 30.79615 191 ft 10 kts 96°
2026-05-07 16:31 36.89644 30.79708 191 ft 11 kts 96°
2026-05-07 16:31 36.89635 30.79801 191 ft 11 kts 96°
2026-05-07 16:31 36.89628 30.79892 191 ft 10 kts 96°
2026-05-07 16:32 36.89620 30.79980 202 ft 10 kts 96°
2026-05-07 16:32 36.89612 30.80065 191 ft 10 kts 97°
2026-05-07 16:32 36.89604 30.80147 195 ft 10 kts 97°
2026-05-07 16:32 36.89597 30.80228 196 ft 10 kts 96°
2026-05-07 16:33 36.89589 30.80315 201 ft 10 kts 96°
2026-05-07 16:33 36.89582 30.80399 195 ft 10 kts 96°
2026-05-07 16:33 36.89575 30.80482 191 ft 10 kts 96°
2026-05-07 16:33 36.89567 30.80574 191 ft 11 kts 97°
2026-05-07 16:34 36.89541 30.80674 194 ft 13 kts 142°
2026-05-07 16:34 36.89450 30.80675 192 ft 13 kts 186°
2026-05-07 16:34 36.89361 30.80663 202 ft 13 kts 186°
2026-05-07 16:34 36.89273 30.80652 196 ft 13 kts 186°
2026-05-07 16:35 36.89187 30.80639 193 ft 12 kts 187°
2026-05-07 16:35 36.89104 30.80627 191 ft 12 kts 186°
2026-05-07 16:35 36.89023 30.80616 204 ft 12 kts 186°
2026-05-07 16:35 36.88944 30.80605 198 ft 11 kts 186°
2026-05-07 16:36 36.88860 30.80594 194 ft 13 kts 186°
2026-05-07 16:36 36.88756 30.80580 202 ft 17 kts 186°
2026-05-07 16:36 36.88634 30.80563 192 ft 17 kts 186°
2026-05-07 16:36 36.88516 30.80547 194 ft 17 kts 186°
2026-05-07 16:37 36.88402 30.80531 198 ft 16 kts 186°
2026-05-07 16:37 36.88292 30.80516 191 ft 16 kts 186°
2026-05-07 16:37 36.88188 30.80503 191 ft 13 kts 186°
2026-05-07 16:37 36.88138 30.80571 196 ft 12 kts 99°
2026-05-07 16:38 36.88129 30.80672 189 ft 11 kts 96°
2026-05-07 16:38 36.88142 30.80730 187 ft 7 kts 24°
2026-05-07 16:38 36.88164 30.80735 197 ft 0 kts
2026-05-07 16:39 36.88173 30.80736 202 ft 5 kts
2026-05-07 16:39 36.88281 30.80751 189 ft 41 kts
2026-05-07 16:39 36.88809 30.80824 191 ft 110 kts
2026-05-07 16:40 36.89773 30.80967 204 ft 166 kts
2026-05-07 16:40 36.90986 30.81148 716 ft 177 kts
2026-05-07 16:40 36.92178 30.81580 1413 ft 183 kts 26°
2026-05-07 16:40 36.93380 30.82199 2117 ft 189 kts 21°
2026-05-07 16:41 36.94604 30.82786 2844 ft 197 kts 24°
2026-05-07 16:41 36.95926 30.83469 3163 ft 216 kts 22°
2026-05-07 16:41 36.97335 30.84161 3735 ft 220 kts 21°
2026-05-07 16:41 36.98743 30.84866 4470 ft 215 kts 23°
2026-05-07 16:42 37.00179 30.85586 4844 ft 234 kts 20°
2026-05-07 16:42 37.01790 30.86347 5117 ft 258 kts 19°
2026-05-07 16:42 37.03495 30.87159 5807 ft 265 kts 20°
2026-05-07 16:42 37.05219 30.87981 6669 ft 264 kts 19°
2026-05-07 16:43 37.06954 30.88772 7456 ft 269 kts
2026-05-07 16:43 37.08827 30.88730 8279 ft 271 kts 352°
2026-05-07 16:43 37.10690 30.88313 9174 ft 273 kts 348°
2026-05-07 16:43 37.12558 30.87815 10042 ft 276 kts 347°
2026-05-07 16:44 37.14474 30.87300 10567 ft 292 kts 347°
2026-05-07 16:44 37.16551 30.86752 10759 ft 317 kts 348°
2026-05-07 16:44 37.18728 30.86189 11509 ft 319 kts 348°
2026-05-07 16:44 37.20906 30.85633 12378 ft 320 kts 348°
2026-05-07 16:45 37.23096 30.85079 13176 ft 323 kts 348°
2026-05-07 16:45 37.25312 30.84520 13891 ft 327 kts 348°
2026-05-07 16:45 37.27556 30.83959 14542 ft 331 kts 349°
2026-05-07 16:45 37.29818 30.83406 15278 ft 330 kts 349°
2026-05-07 16:46 37.32048 30.82869 15943 ft 332 kts 347°
2026-05-07 16:46 37.34354 30.82261 16589 ft 336 kts 347°
2026-05-07 16:46 37.36625 30.81670 17211 ft 339 kts 347°
2026-05-07 16:46 37.38951 30.81095 17861 ft 342 kts 349°
2026-05-07 16:47 37.41290 30.80516 18462 ft 344 kts 345°
2026-05-07 16:47 37.43673 30.80051 18951 ft 351 kts 356°
2026-05-07 16:47 37.46122 30.80130 19533 ft 353 kts
2026-05-07 16:47 37.48573 30.80296 20090 ft 354 kts
2026-05-07 16:48 37.51041 30.80451 20647 ft 355 kts 360°
2026-05-07 16:48 37.53517 30.80589 21198 ft 357 kts 359°
2026-05-07 16:48 37.56001 30.80712 21702 ft 359 kts 359°
2026-05-07 16:48 37.58505 30.80830 22169 ft 362 kts 359°
2026-05-07 16:49 37.61056 30.80945 22284 ft 373 kts 359°
2026-05-07 16:49 37.63679 30.81066 22362 ft 382 kts
2026-05-07 16:49 37.66375 30.81272 22444 ft 393 kts 360°
2026-05-07 16:49 37.69143 30.81367 22531 ft 403 kts 359°
2026-05-07 16:50 37.71982 30.81450 22614 ft 413 kts 359°
2026-05-07 16:50 37.74869 30.81567 22857 ft 418 kts 359°
2026-05-07 16:50 37.77780 30.81699 23191 ft 420 kts 359°
2026-05-07 16:50 37.80702 30.81775 23611 ft 419 kts 358°
2026-05-07 16:51 37.83579 30.81727 23945 ft 420 kts 356°
2026-05-07 16:51 37.86506 30.81633 24244 ft 422 kts 356°
2026-05-07 16:51 37.89447 30.81535 24495 ft 424 kts 356°
2026-05-07 16:51 37.92397 30.81449 24794 ft 424 kts 356°
2026-05-07 16:52 37.95348 30.81376 25081 ft 425 kts 356°
2026-05-07 16:52 37.98311 30.81312 25328 ft 426 kts 356°
2026-05-07 16:52 38.01283 30.81251 25555 ft 428 kts 356°
2026-05-07 16:52 38.04263 30.81192 25802 ft 429 kts 356°
2026-05-07 16:53 38.07249 30.81133 26068 ft 430 kts 356°
2026-05-07 16:53 38.10246 30.81072 26276 ft 431 kts 356°
2026-05-07 16:53 38.13251 30.81001 26524 ft 433 kts 355°
2026-05-07 16:53 38.16247 30.80701 26772 ft 432 kts 351°
2026-05-07 16:54 38.19233 30.80210 27005 ft 433 kts 349°
2026-05-07 16:54 38.22217 30.79655 27221 ft 434 kts 349°
2026-05-07 16:54 38.25205 30.79094 27480 ft 434 kts 349°
2026-05-07 16:54 38.28187 30.78552 27839 ft 432 kts 349°
2026-05-07 16:55 38.31151 30.78034 28235 ft 429 kts 350°
2026-05-07 16:55 38.34111 30.77531 28577 ft 429 kts 350°
2026-05-07 16:55 38.37071 30.77036 28935 ft 428 kts 350°
2026-05-07 16:55 38.40015 30.76549 29331 ft 425 kts 350°
2026-05-07 16:56 38.42943 30.76066 29704 ft 424 kts 350°
2026-05-07 16:56 38.45866 30.75583 30028 ft 423 kts 350°
2026-05-07 16:56 38.51693 30.74618 30657 ft 421 kts 349°
2026-05-07 16:57 38.54598 30.74136 30964 ft 420 kts 349°
2026-05-07 16:57 38.57494 30.73654 31242 ft 419 kts 349°
2026-05-07 16:57 38.60344 30.73180 31533 ft 419 kts 349°
2026-05-07 16:57 38.63231 30.72699 31856 ft 417 kts 349°
2026-05-07 16:58 38.66108 30.72220 32178 ft 416 kts 349°
2026-05-07 16:58 38.68983 30.71740 32465 ft 416 kts 349°
2026-05-07 16:58 38.71847 30.71262 32750 ft 415 kts 349°
2026-05-07 16:58 38.74707 30.70784 33057 ft 414 kts 349°
2026-05-07 16:59 38.77558 30.70307 33342 ft 413 kts 349°
2026-05-07 16:59 38.80411 30.69830 33620 ft 413 kts 349°
2026-05-07 16:59 38.83245 30.69305 33899 ft 410 kts 345°
2026-05-07 16:59 38.85986 30.68358 34155 ft 407 kts 338°
2026-05-07 17:00 38.88577 30.66936 34369 ft 404 kts 331°
2026-05-07 17:00 38.91084 30.65289 34562 ft 405 kts 331°
2026-05-07 17:00 38.93584 30.63635 34797 ft 404 kts 331°
2026-05-07 17:00 38.96082 30.61986 35010 ft 404 kts 331°
2026-05-07 17:01 38.98579 30.60343 35216 ft 404 kts 331°
2026-05-07 17:01 39.01047 30.58725 35452 ft 403 kts 331°
2026-05-07 17:01 39.03542 30.57093 35648 ft 403 kts 331°
2026-05-07 17:01 39.06040 30.55460 35818 ft 403 kts 331°
2026-05-07 17:02 39.08541 30.53825 36007 ft 403 kts 331°
2026-05-07 17:02 39.11040 30.52191 36187 ft 403 kts 331°
2026-05-07 17:02 39.13541 30.50554 36373 ft 403 kts 331°
2026-05-07 17:02 39.16041 30.48917 36562 ft 402 kts 331°
2026-05-07 17:03 39.18535 30.47282 36722 ft 403 kts 331°
2026-05-07 17:03 39.21034 30.45642 36892 ft 403 kts 331°
2026-05-07 17:03 39.23536 30.44000 37085 ft 403 kts 331°
2026-05-07 17:03 39.26035 30.42357 37163 ft 404 kts 331°
2026-05-07 17:04 39.31051 30.39057 37153 ft 404 kts 331°
2026-05-07 17:04 39.36001 30.35795 37155 ft 400 kts 331°
2026-05-07 17:05 39.40939 30.32535 37167 ft 397 kts 331°
2026-05-07 17:05 39.45848 30.29289 37171 ft 396 kts 331°
2026-05-07 17:06 39.50768 30.26091 37162 ft 396 kts 333°
2026-05-07 17:06 39.55866 30.23323 37164 ft 398 kts 336°
2026-05-07 17:07 39.61008 30.20650 37162 ft 399 kts 335°
2026-05-07 17:07 39.66163 30.17931 37162 ft 401 kts 335°
2026-05-07 17:08 39.71336 30.15171 37164 ft 403 kts 335°
2026-05-07 17:08 39.75654 30.12857 37155 ft 404 kts 335°
2026-05-07 17:09 39.81715 30.09604 37152 ft 406 kts 335°
2026-05-07 17:09 39.86952 30.06787 37148 ft 408 kts 335°
2026-05-07 17:10 39.92211 30.03956 37130 ft 410 kts 335°
2026-05-07 17:10 39.96593 30.01593 37143 ft 410 kts 335°
2026-05-07 17:11 40.01871 29.98742 37132 ft 411 kts 335°
2026-05-07 17:11 40.07144 29.95890 37133 ft 410 kts 335°
2026-05-07 17:12 40.12412 29.93036 37129 ft 409 kts 335°
2026-05-07 17:12 40.17677 29.90178 37124 ft 409 kts 335°
2026-05-07 17:13 40.22932 29.87321 37111 ft 409 kts 335°
2026-05-07 17:13 40.28175 29.84465 37109 ft 408 kts 335°
2026-05-07 17:14 40.33382 29.81624 37093 ft 408 kts 335°
2026-05-07 17:14 40.38614 29.78764 37113 ft 407 kts 335°
2026-05-07 17:15 40.43851 29.75897 37094 ft 408 kts 335°
2026-05-07 17:15 40.49090 29.73024 37103 ft 408 kts 335°
2026-05-07 17:16 40.54335 29.70143 37110 ft 409 kts 335°
2026-05-07 17:16 40.59587 29.67253 37102 ft 410 kts 335°
2026-05-07 17:17 40.64844 29.64316 37115 ft 410 kts 332°
2026-05-07 17:17 40.69555 29.60172 37116 ft 408 kts 320°
2026-05-07 17:18 40.73935 29.55494 37102 ft 408 kts 320°
2026-05-07 17:18 40.78357 29.50791 37100 ft 408 kts 320°
2026-05-07 17:19 40.82789 29.46099 37105 ft 409 kts 320°
2026-05-07 17:19 40.87229 29.41401 37103 ft 409 kts 320°
2026-05-07 17:20 40.91672 29.36692 37106 ft 410 kts 320°
2026-05-07 17:20 40.96125 29.31964 37103 ft 410 kts 320°
2026-05-07 17:21 41.00579 29.27226 37336 ft 411 kts 320°
2026-05-07 17:21 41.02803 29.24857 37582 ft 409 kts 320°
2026-05-07 17:21 41.05022 29.22491 37703 ft 410 kts 320°
2026-05-07 17:22 41.07243 29.20121 37885 ft 410 kts 320°
2026-05-07 17:22 41.09458 29.17756 38103 ft 408 kts 320°
2026-05-07 17:22 41.13585 29.12574 38113 ft 410 kts 307°
2026-05-07 17:23 41.16773 29.06310 38095 ft 410 kts 303°
2026-05-07 17:23 41.19874 29.00022 38096 ft 410 kts 303°
2026-05-07 17:24 41.23013 28.93701 38093 ft 410 kts 303°
2026-05-07 17:24 41.25933 28.87838 38106 ft 410 kts 303°
2026-05-07 17:25 41.29081 28.81515 38105 ft 410 kts 303°
2026-05-07 17:25 41.32136 28.75363 38103 ft 410 kts 303°
2026-05-07 17:26 41.35279 28.69023 38098 ft 410 kts 303°
2026-05-07 17:26 41.38364 28.62785 38102 ft 410 kts 303°
2026-05-07 17:27 41.41500 28.56433 38102 ft 411 kts 303°
2026-05-07 17:27 41.44635 28.50067 38105 ft 411 kts 303°
2026-05-07 17:28 41.47767 28.43697 38110 ft 411 kts 302°
2026-05-07 17:28 41.51286 28.37762 38113 ft 412 kts 314°
2026-05-07 17:29 41.55404 28.32422 38124 ft 413 kts 314°
2026-05-07 17:29 41.59522 28.27065 38112 ft 413 kts 314°
2026-05-07 17:30 41.63626 28.21672 38111 ft 414 kts 314°
2026-05-07 17:30 41.67699 28.16291 38116 ft 414 kts 313°
2026-05-07 17:31 41.71791 28.10870 38117 ft 414 kts 313°
2026-05-07 17:31 41.75887 28.05433 38110 ft 415 kts 313°
2026-05-07 17:32 41.79982 27.99988 38112 ft 415 kts 313°
2026-05-07 17:32 41.84079 27.94532 38122 ft 415 kts 313°
2026-05-07 17:33 41.88168 27.89073 38107 ft 415 kts 313°
2026-05-07 17:33 41.92252 27.83612 38105 ft 414 kts 313°
2026-05-07 17:34 41.96332 27.78148 38106 ft 414 kts 313°
2026-05-07 17:34 42.00381 27.72655 38098 ft 413 kts 313°
2026-05-07 17:35 42.04405 27.67137 38101 ft 413 kts 313°
2026-05-07 17:35 42.08423 27.61619 38103 ft 413 kts 313°
2026-05-07 17:36 42.12443 27.56094 38089 ft 413 kts 312°
2026-05-07 17:36 42.16467 27.50556 38105 ft 414 kts 312°
2026-05-07 17:37 42.20471 27.45035 38099 ft 414 kts 312°
2026-05-07 17:37 42.24529 27.39429 38100 ft 415 kts 312°
2026-05-07 17:38 42.28538 27.33878 38097 ft 416 kts 312°
2026-05-07 17:38 42.32586 27.28265 38095 ft 417 kts 312°
2026-05-07 17:39 42.36639 27.22633 38098 ft 418 kts 312°
2026-05-07 17:39 42.40703 27.16974 38084 ft 419 kts 312°
2026-05-07 17:40 42.44770 27.11300 38101 ft 420 kts 312°
2026-05-07 17:40 42.48847 27.05600 38086 ft 421 kts 312°
2026-05-07 17:41 42.52927 26.99885 38083 ft 422 kts 312°
2026-05-07 17:41 42.57008 26.94157 38084 ft 423 kts 311°
2026-05-07 17:42 42.61094 26.88411 38092 ft 423 kts 311°
2026-05-07 17:42 42.65186 26.82644 38077 ft 424 kts 311°
2026-05-07 17:43 42.69277 26.76866 38062 ft 424 kts 311°
2026-05-07 17:43 42.73344 26.71111 38063 ft 425 kts 311°
2026-05-07 17:44 42.77434 26.65313 38064 ft 425 kts 311°
2026-05-07 17:44 42.81524 26.59515 38063 ft 425 kts 313°
2026-05-07 17:45 42.85854 26.54016 38056 ft 426 kts 315°
2026-05-07 17:45 42.90291 26.48645 38059 ft 427 kts 315°
2026-05-07 17:46 42.94716 26.43241 38052 ft 427 kts 315°
2026-05-07 17:46 42.99121 26.37786 38043 ft 427 kts 315°
2026-05-07 17:47 43.03525 26.32312 38047 ft 428 kts 315°
2026-05-07 17:47 43.07923 26.26839 38035 ft 428 kts 314°
2026-05-07 17:48 43.12328 26.21347 38026 ft 428 kts 314°
2026-05-07 17:48 43.16732 26.15844 38031 ft 428 kts 314°
2026-05-07 17:49 43.20755 26.09874 38033 ft 426 kts 307°
2026-05-07 17:49 43.24532 26.03687 38036 ft 426 kts 307°
2026-05-07 17:50 43.28343 25.97467 38030 ft 426 kts 307°
2026-05-07 17:50 43.32187 25.91259 38036 ft 427 kts 307°
2026-05-07 17:51 43.36041 25.85049 38040 ft 427 kts 307°
2026-05-07 17:51 43.39899 25.78824 38024 ft 428 kts 307°
2026-05-07 17:52 43.43757 25.72584 38027 ft 428 kts 307°
2026-05-07 17:52 43.47611 25.66335 38017 ft 428 kts 307°
2026-05-07 17:53 43.51457 25.60085 38022 ft 428 kts 307°
2026-05-07 17:53 43.55275 25.53866 38012 ft 428 kts 307°
2026-05-07 17:54 43.59114 25.47602 38018 ft 428 kts 307°
2026-05-07 17:54 43.62951 25.41328 38020 ft 428 kts 307°
2026-05-07 17:55 43.66915 25.35190 38023 ft 428 kts 309°
2026-05-07 17:55 43.70945 25.29132 38024 ft 428 kts 309°
2026-05-07 17:56 43.74969 25.23052 38034 ft 429 kts 309°
2026-05-07 17:56 43.78980 25.16938 38035 ft 429 kts 309°
2026-05-07 17:57 43.82302 25.11852 38032 ft 429 kts 309°
2026-05-07 17:57 43.86977 25.04674 38033 ft 429 kts 309°
2026-05-07 17:58 43.90948 24.98561 38038 ft 429 kts 308°
2026-05-07 17:58 43.94946 24.92396 38038 ft 430 kts 308°
2026-05-07 17:59 43.98943 24.86217 38036 ft 430 kts 308°
2026-05-07 17:59 44.02942 24.80023 38039 ft 431 kts 308°
2026-05-07 18:00 44.06941 24.73815 38036 ft 431 kts 308°
2026-05-07 18:00 44.10937 24.67598 38044 ft 431 kts 308°
2026-05-07 18:01 44.14260 24.62418 38039 ft 432 kts 308°
2026-05-07 18:01 44.18260 24.56170 38040 ft 432 kts 308°
2026-05-07 18:02 44.24263 24.46767 38036 ft 433 kts 308°
2026-05-07 18:03 44.28266 24.40479 38043 ft 433 kts 308°
2026-05-07 18:03 44.32268 24.34179 38043 ft 434 kts 308°
2026-05-07 18:04 44.36269 24.27867 38043 ft 434 kts 308°
2026-05-07 18:04 44.40275 24.21532 38047 ft 434 kts 308°
2026-05-07 18:05 44.44274 24.15194 38046 ft 435 kts 308°
2026-05-07 18:05 44.48274 24.08840 38046 ft 435 kts 308°
2026-05-07 18:06 44.52272 24.02475 38043 ft 435 kts 308°
2026-05-07 18:06 44.56243 23.96141 38055 ft 435 kts 308°
2026-05-07 18:07 44.60224 23.89774 38037 ft 434 kts 308°
2026-05-07 18:07 44.64210 23.83426 38046 ft 433 kts 307°
2026-05-07 18:08 44.68192 23.77084 38040 ft 432 kts 308°
2026-05-07 18:08 44.72143 23.70732 38054 ft 431 kts 307°
2026-05-07 18:09 44.76055 23.64353 38040 ft 431 kts 307°
2026-05-07 18:09 44.79976 23.57979 38039 ft 430 kts 307°
2026-05-07 18:10 44.83894 23.51619 38046 ft 430 kts 307°
2026-05-07 18:10 44.87810 23.45258 38065 ft 429 kts 307°
2026-05-07 18:11 44.91719 23.38893 38054 ft 429 kts 307°
2026-05-07 18:11 44.95598 23.32562 38044 ft 429 kts 307°
2026-05-07 18:12 44.99501 23.26179 38049 ft 429 kts 307°
2026-05-07 18:12 45.03400 23.19787 38053 ft 429 kts 307°
2026-05-07 18:13 45.07298 23.13382 38064 ft 430 kts 307°
2026-05-07 18:13 45.11193 23.06966 38063 ft 430 kts 307°
2026-05-07 18:14 45.15091 23.00529 38056 ft 431 kts 307°
2026-05-07 18:14 45.18989 22.94081 38066 ft 431 kts 307°
2026-05-07 18:15 45.22887 22.87619 38063 ft 431 kts 307°
2026-05-07 18:15 45.26763 22.81176 38074 ft 432 kts 306°
2026-05-07 18:16 45.30667 22.74671 38074 ft 433 kts 307°
2026-05-07 18:16 45.34574 22.68146 38059 ft 433 kts 306°
2026-05-07 18:17 45.38481 22.61609 38067 ft 434 kts 306°
2026-05-07 18:17 45.42387 22.55054 38056 ft 434 kts 306°
2026-05-07 18:18 45.46291 22.48490 38046 ft 434 kts 306°
2026-05-07 18:18 45.50162 22.41965 38042 ft 434 kts 306°
2026-05-07 18:19 45.54050 22.35397 38042 ft 433 kts 306°
2026-05-07 18:19 45.57926 22.28833 38042 ft 432 kts 306°
2026-05-07 18:20 45.61794 22.22266 38023 ft 431 kts 306°
2026-05-07 18:20 45.65649 22.15708 38023 ft 431 kts 306°
2026-05-07 18:21 45.69501 22.09140 38025 ft 430 kts 306°
2026-05-07 18:21 45.73345 22.02567 38028 ft 431 kts 306°
2026-05-07 18:22 45.77159 21.96030 38025 ft 431 kts 306°
2026-05-07 18:22 45.80996 21.89439 38018 ft 431 kts 306°
2026-05-07 18:23 45.84833 21.82833 38021 ft 431 kts 306°
2026-05-07 18:23 45.88671 21.76210 38025 ft 432 kts 306°
2026-05-07 18:24 45.92511 21.69567 38027 ft 433 kts 305°
2026-05-07 18:24 45.96354 21.62903 38021 ft 433 kts 305°
2026-05-07 18:25 46.00195 21.56226 38021 ft 434 kts 305°
2026-05-07 18:25 46.04041 21.49525 38016 ft 434 kts 305°
2026-05-07 18:26 46.07885 21.42811 38021 ft 435 kts 305°
2026-05-07 18:26 46.11731 21.36077 38021 ft 435 kts 305°
2026-05-07 18:27 46.15577 21.29327 38022 ft 436 kts 305°
2026-05-07 18:27 46.19396 21.22608 38023 ft 436 kts 305°
2026-05-07 18:28 46.23241 21.15827 38041 ft 436 kts 304°
2026-05-07 18:28 46.27107 21.09053 38011 ft 438 kts 306°
2026-05-07 18:29 46.31200 21.02513 38011 ft 439 kts 308°
2026-05-07 18:29 46.35360 20.96032 38010 ft 440 kts 308°
2026-05-07 18:30 46.39504 20.89506 38027 ft 440 kts 308°
2026-05-07 18:30 46.43623 20.82959 38013 ft 440 kts 307°
2026-05-07 18:31 46.47738 20.76388 38011 ft 440 kts 307°
2026-05-07 18:31 46.51848 20.69811 38003 ft 440 kts 307°
2026-05-07 18:32 46.55929 20.63264 38009 ft 440 kts 307°
2026-05-07 18:32 46.60035 20.56663 38008 ft 440 kts 307°
2026-05-07 18:33 46.64142 20.50044 38008 ft 440 kts 307°
2026-05-07 18:33 46.68242 20.43421 38006 ft 441 kts 307°
2026-05-07 18:34 46.72340 20.36782 38005 ft 440 kts 306°
2026-05-07 18:34 46.76128 20.29817 38011 ft 437 kts 301°
2026-05-07 18:35 46.79683 20.22633 38003 ft 436 kts 301°
2026-05-07 18:35 46.83243 20.15452 38009 ft 437 kts 301°
2026-05-07 18:36 46.86812 20.08336 38019 ft 437 kts 301°
2026-05-07 18:36 46.90417 20.01172 38014 ft 438 kts 301°
2026-05-07 18:37 46.94025 19.93993 38022 ft 438 kts 301°
2026-05-07 18:37 46.97634 19.86790 38023 ft 439 kts 301°
2026-05-07 18:38 47.01242 19.79568 38020 ft 439 kts 301°
2026-05-07 18:38 47.04846 19.72336 38020 ft 439 kts 301°
2026-05-07 18:39 47.08446 19.65093 38007 ft 440 kts 301°
2026-05-07 18:39 47.12051 19.57819 38010 ft 440 kts 301°
2026-05-07 18:40 47.15651 19.50537 38000 ft 441 kts 301°
2026-05-07 18:40 47.19218 19.43301 37636 ft 445 kts 301°
2026-05-07 18:40 47.21027 19.39625 37366 ft 443 kts 301°
2026-05-07 18:41 47.22827 19.35968 37121 ft 438 kts 300°
2026-05-07 18:41 47.24606 19.32345 36883 ft 438 kts 300°
2026-05-07 18:41 47.26395 19.28691 36633 ft 440 kts 300°
2026-05-07 18:41 47.28181 19.25041 36383 ft 440 kts 300°
2026-05-07 18:42 47.29972 19.21376 36139 ft 441 kts 300°
2026-05-07 18:42 47.31765 19.17704 35893 ft 441 kts 300°
2026-05-07 18:42 47.33548 19.14027 35645 ft 441 kts 298°
2026-05-07 18:42 47.35071 19.10155 35392 ft 434 kts 290°
2026-05-07 18:43 47.36338 19.06122 35160 ft 432 kts 289°
2026-05-07 18:43 47.37572 19.02084 34929 ft 431 kts 288°
2026-05-07 18:43 47.38787 18.98105 34463 ft 431 kts 288°
2026-05-07 18:43 47.40024 18.94072 33848 ft 431 kts 288°
2026-05-07 18:44 47.41286 18.89989 33113 ft 432 kts 288°
2026-05-07 18:44 47.42522 18.86009 32453 ft 433 kts 288°
2026-05-07 18:44 47.43750 18.82059 31781 ft 434 kts 288°
2026-05-07 18:44 47.45035 18.77927 31064 ft 436 kts 288°
2026-05-07 18:45 47.46281 18.73911 30367 ft 438 kts 288°
2026-05-07 18:45 47.47569 18.69766 29679 ft 438 kts 288°
2026-05-07 18:45 47.48815 18.65740 29157 ft 434 kts 288°
2026-05-07 18:45 47.50069 18.61687 28583 ft 431 kts 288°
2026-05-07 18:46 47.51304 18.57683 28037 ft 427 kts 288°
2026-05-07 18:46 47.52533 18.53695 27514 ft 423 kts 288°
2026-05-07 18:46 47.53746 18.49750 26992 ft 420 kts 288°
2026-05-07 18:46 47.54974 18.45831 26317 ft 421 kts 289°
2026-05-07 18:47 47.56200 18.41902 25785 ft 416 kts 286°
2026-05-07 18:47 47.57137 18.37894 25264 ft 410 kts 282°
2026-05-07 18:47 47.57953 18.33869 24762 ft 406 kts 281°
2026-05-07 18:47 47.58731 18.29864 24264 ft 403 kts 281°
2026-05-07 18:48 47.59502 18.25897 23793 ft 401 kts 281°
2026-05-07 18:48 47.60304 18.21933 23229 ft 399 kts 282°
2026-05-07 18:48 47.61092 18.18013 22687 ft 395 kts 282°
2026-05-07 18:48 47.61873 18.14139 22213 ft 390 kts 281°
2026-05-07 18:49 47.62626 18.10341 21723 ft 387 kts 282°
2026-05-07 18:49 47.63389 18.06545 21243 ft 383 kts 282°
2026-05-07 18:49 47.64159 18.02734 20753 ft 380 kts 282°
2026-05-07 18:49 47.64906 17.99043 20291 ft 377 kts 282°
2026-05-07 18:50 47.65654 17.95341 19832 ft 374 kts 282°
2026-05-07 18:50 47.66397 17.91659 19376 ft 372 kts 282°
2026-05-07 18:50 47.67134 17.87992 18937 ft 370 kts 282°
2026-05-07 18:50 47.67867 17.84342 18470 ft 368 kts 283°
2026-05-07 18:51 47.68595 17.80709 17955 ft 366 kts 283°
2026-05-07 18:51 47.69317 17.77097 17445 ft 364 kts 283°
2026-05-07 18:51 47.70035 17.73503 16979 ft 361 kts 283°
2026-05-07 18:51 47.70743 17.69951 16529 ft 358 kts 283°
2026-05-07 18:52 47.71445 17.66421 16074 ft 355 kts 283°
2026-05-07 18:52 47.72163 17.62930 15669 ft 353 kts 287°
2026-05-07 18:52 47.73207 17.59637 15449 ft 353 kts 295°
2026-05-07 18:52 47.74385 17.56381 15206 ft 362 kts 296°
2026-05-07 18:53 47.75592 17.53074 14962 ft 366 kts 296°
2026-05-07 18:53 47.76804 17.49746 14723 ft 366 kts 297°
2026-05-07 18:53 47.78023 17.46433 14480 ft 365 kts 296°
2026-05-07 18:53 47.79203 17.43097 14250 ft 364 kts 296°
2026-05-07 18:54 47.80377 17.39771 14013 ft 364 kts 296°
2026-05-07 18:54 47.81551 17.36442 13772 ft 363 kts 296°
2026-05-07 18:54 47.82725 17.33116 13501 ft 362 kts 296°
2026-05-07 18:54 47.83894 17.29800 13239 ft 361 kts 296°
2026-05-07 18:55 47.84668 17.27603 13066 ft 360 kts 296°
2026-05-07 18:55 47.85830 17.24301 12805 ft 359 kts 296°
2026-05-07 18:55 47.86984 17.21020 12541 ft 357 kts 296°
2026-05-07 18:55 47.88133 17.17744 12275 ft 355 kts 296°
2026-05-07 18:56 47.89382 17.14583 12014 ft 355 kts 307°
2026-05-07 18:56 47.91054 17.11898 11772 ft 351 kts 315°
2026-05-07 18:56 47.92807 17.09382 11519 ft 349 kts 316°
2026-05-07 18:56 47.94553 17.06896 11263 ft 346 kts 316°
2026-05-07 18:57 47.96281 17.04417 11017 ft 344 kts 316°
2026-05-07 18:57 47.97999 17.01939 10731 ft 343 kts 316°
2026-05-07 18:57 47.99706 16.99464 10492 ft 341 kts 316°
2026-05-07 18:57 48.01403 16.96999 10256 ft 339 kts 316°
2026-05-07 18:58 48.03075 16.94536 10017 ft 337 kts 315°
2026-05-07 18:58 48.04753 16.92085 9757 ft 335 kts 316°
2026-05-07 18:58 48.06409 16.89682 9486 ft 328 kts 316°
2026-05-07 18:58 48.08022 16.87330 9227 ft 319 kts 316°
2026-05-07 18:59 48.09571 16.85066 8945 ft 304 kts 316°
2026-05-07 18:59 48.11050 16.82903 8669 ft 291 kts 316°
2026-05-07 18:59 48.12477 16.80814 8408 ft 282 kts 316°
2026-05-07 18:59 48.13858 16.78788 8143 ft 275 kts 316°
2026-05-07 19:00 48.15207 16.76807 7884 ft 267 kts 316°
2026-05-07 19:00 48.16521 16.74877 7630 ft 262 kts 316°
2026-05-07 19:00 48.17812 16.72979 7374 ft 259 kts 316°
2026-05-07 19:00 48.19096 16.71088 7137 ft 259 kts 316°
2026-05-07 19:01 48.20378 16.69194 6731 ft 259 kts 316°
2026-05-07 19:01 48.21678 16.67340 6380 ft 255 kts 318°
2026-05-07 19:01 48.23144 16.65988 5987 ft 250 kts 343°
2026-05-07 19:01 48.24825 16.65296 5672 ft 245 kts 344°
2026-05-07 19:02 48.26432 16.64638 5387 ft 240 kts 344°
2026-05-07 19:02 48.28023 16.63969 5107 ft 237 kts 343°
2026-05-07 19:02 48.29621 16.63310 4848 ft 238 kts 344°
2026-05-07 19:02 48.31218 16.62671 4565 ft 238 kts 345°
2026-05-07 19:03 48.32713 16.61702 4246 ft 235 kts 315°
2026-05-07 19:03 48.33482 16.59615 3990 ft 230 kts 277°
2026-05-07 19:03 48.33210 16.57297 3707 ft 230 kts 238°
2026-05-07 19:03 48.31991 16.55787 3461 ft 232 kts 202°
2026-05-07 19:04 48.30452 16.55067 3220 ft 232 kts 197°
2026-05-07 19:04 48.28893 16.54459 3047 ft 228 kts 195°
2026-05-07 19:04 48.27404 16.53896 3005 ft 213 kts 195°
2026-05-07 19:04 48.26026 16.53388 2979 ft 195 kts 195°
2026-05-07 19:05 48.24760 16.52953 2966 ft 181 kts 187°
2026-05-07 19:05 48.23494 16.53039 3010 ft 185 kts 171°
2026-05-07 19:05 48.22218 16.53503 2717 ft 193 kts 167°
2026-05-07 19:05 48.20934 16.53997 2466 ft 188 kts 167°
2026-05-07 19:06 48.19714 16.54526 2235 ft 175 kts 163°
2026-05-07 19:06 48.17453 16.55501 1761 ft 165 kts 167°
2026-05-07 19:06 48.16356 16.55949 1538 ft 162 kts 166°
2026-05-07 19:07 48.15293 16.56414 1282 ft 157 kts 167°
2026-05-07 19:07 48.14253 16.56858 1060 ft 154 kts 166°
2026-05-07 19:07 48.13214 16.57318 862 ft 159 kts 168°
2026-05-07 19:07 48.12144 16.57754 687 ft 157 kts 167°
2026-05-07 19:08 48.11201 16.58143 614 ft 139 kts 165°
2026-05-07 19:08 48.10409 16.58475 616 ft 97 kts 165°
2026-05-07 19:08 48.10005 16.58635 611 ft 19 kts 188°
2026-05-07 19:08 48.09881 16.58604 623 ft 18 kts 187°
2026-05-07 19:09 48.09760 16.58576 611 ft 17 kts 190°
2026-05-07 19:09 48.09668 16.58547 609 ft 13 kts 206°
2026-05-07 19:09 48.09636 16.58433 609 ft 13 kts 283°
2026-05-07 19:09 48.09702 16.58361 614 ft 12 kts 345°
2026-05-07 19:10 48.09783 16.58327 612 ft 12 kts 343°
2026-05-07 19:10 48.09854 16.58296 617 ft 12 kts 346°
2026-05-07 19:10 48.09930 16.58265 619 ft 11 kts 345°
2026-05-07 19:10 48.10006 16.58233 616 ft 12 kts 344°
2026-05-07 19:11 48.10109 16.58190 618 ft 19 kts 344°
2026-05-07 19:11 48.10251 16.58130 619 ft 23 kts 344°
2026-05-07 19:11 48.10398 16.58067 618 ft 23 kts 344°
2026-05-07 19:11 48.10549 16.58003 610 ft 22 kts 343°
2026-05-07 19:12 48.10693 16.57943 613 ft 22 kts 344°
2026-05-07 19:12 48.10838 16.57883 613 ft 21 kts 346°
2026-05-07 19:12 48.10976 16.57831 613 ft 20 kts 345°
2026-05-07 19:12 48.11078 16.57757 613 ft 10 kts 333°
2026-05-07 19:13 48.11145 16.57724 619 ft 12 kts 318°
2026-05-07 19:13 48.11200 16.57582 616 ft 20 kts 299°
2026-05-07 19:13 48.11270 16.57368 613 ft 26 kts 297°
2026-05-07 19:13 48.11349 16.57126 612 ft 25 kts 296°
2026-05-07 19:14 48.11413 16.56931 611 ft 23 kts 296°
2026-05-07 19:14 48.11483 16.56717 615 ft 23 kts 296°
2026-05-07 19:14 48.11550 16.56509 618 ft 22 kts 296°
2026-05-07 19:14 48.11616 16.56307 610 ft 21 kts 297°
2026-05-07 19:15 48.11676 16.56122 619 ft 13 kts 296°
2026-05-07 19:15 48.11712 16.56014 611 ft 11 kts 296°
2026-05-07 19:15 48.11747 16.55988 617 ft 7 kts 38°
2026-05-07 19:15 48.11784 16.56032 614 ft 6 kts 38°
2026-05-07 19:16 48.11786 16.56035 612 ft 0 kts 38°